Weather History for Taos, NM

Change the Weather History Date:

Monday, November 12, 2012

  Actual Average Record
Temperature  
Mean Temperature 14 °F -  
Max Temperature 28 °F 48 °F 68 °F (1999)
Min Temperature 1 °F 20 °F 1 °F (2012)
Degree Days  
Heating Degree Days 50    
Moisture  
Dew Point 2 °F    
Average Humidity 66    
Maximum Humidity 85    
Minimum Humidity 34    
Precipitation  
Precipitation 0.00 in - - ()
Sea Level Pressure  
Sea Level Pressure 30.40 in    
Wind  
Wind Speed 4 mph (NNE)    
Max Wind Speed 9 mph    
Max Gust Speed 16 mph    
Visibility 10 miles    
Events      
Averages and records for this station are not official NWS values.
T = Trace of Precipitation, MM = Missing Value Source: NWS Daily Summary

Daily Weather History Graph

Daily Weather History Graph

Search for Another Location

Airport:

Trip Planner

Search our weather history database for the weather conditions in past years. The results will help you decide how hot, cold, wet, or windy it might be!

Date:

Astronomy

Nov. 12, 2012 Rise Set
Actual Time 6:37 AM MST 4:55 PM MST
Civil Twilight 6:10 AM MST 5:23 PM MST
Nautical Twilight 5:39 AM MST 5:54 PM MST
Astronomical Twilight 5:08 AM MST 6:24 PM MST
Moon 5:07 AM MST (11/12) 4:02 PM MST (11/12)
Length of Visible Light 11h 12m
Length of Day
10h 18m
Waning Crescent, 2% of the Moon is Illuminated
Nov 12
Waning Crescent
Nov 13
New
Nov 20
First Quarter
Nov 28
Full
Dec 6
Last Quarter

Hourly Weather History & Observations

Time (MST) Temp. Windchill Dew Point Humidity Pressure Visibility Wind Dir Wind Speed Gust Speed Precip Events Conditions
12:15 AM 10.4 °F 4.0 °F 3.2 °F 73% 30.34 in 10.0 mi ENE 3.5 mph - N/A   Clear
12:35 AM 10.4 °F 4.0 °F 1.4 °F 67% 30.35 in 10.0 mi ENE 3.5 mph - N/A   Clear
12:55 AM 8.6 °F 0.1 °F -0.4 °F 67% 30.35 in 10.0 mi NE 4.6 mph - N/A   Clear
1:15 AM 8.6 °F 2.0 °F 1.4 °F 73% 30.37 in 10.0 mi NE 3.5 mph - N/A   Clear
1:35 AM 5.0 °F - -5.8 °F 61% 30.37 in 10.0 mi Calm Calm - N/A   Clear
1:55 AM 5.0 °F -2.1 °F -0.4 °F 78% 30.37 in 10.0 mi NNW 3.5 mph - N/A   Clear
2:15 AM 8.6 °F - 3.2 °F 79% 30.38 in 10.0 mi Calm Calm - N/A   Clear
2:35 AM 6.8 °F - -2.2 °F 67% 30.38 in 10.0 mi Calm Calm - N/A   Clear
2:55 AM 6.8 °F -0.1 °F -2.2 °F 67% 30.39 in 10.0 mi North 3.5 mph - N/A   Clear
3:15 AM 6.8 °F -4.8 °F 1.4 °F 79% 30.38 in 10.0 mi NNE 6.9 mph - N/A   Clear
3:35 AM 6.8 °F -5.9 °F -0.4 °F 72% 30.38 in 10.0 mi NNE 8.1 mph - N/A   Clear
3:55 AM 5.0 °F -9.1 °F -2.2 °F 72% 30.39 in 10.0 mi NNE 9.2 mph - N/A   Clear
4:15 AM 3.2 °F -6.2 °F -2.2 °F 78% 30.39 in 10.0 mi North 4.6 mph - N/A   Clear
4:35 AM 1.4 °F -12.5 °F -5.8 °F 72% 30.39 in 10.0 mi North 8.1 mph - N/A   Clear
4:55 AM 3.2 °F -9.1 °F -5.8 °F 66% 30.40 in 10.0 mi North 6.9 mph - N/A   Clear
5:15 AM 1.4 °F -9.9 °F -2.2 °F 85% 30.40 in 10.0 mi North 5.8 mph - N/A   Clear
5:35 AM 1.4 °F -9.9 °F -5.8 °F 72% 30.41 in 10.0 mi North 5.8 mph - N/A   Clear
5:55 AM 1.4 °F -12.5 °F -5.8 °F 72% 30.42 in 10.0 mi North 8.1 mph - N/A   Clear
6:15 AM 3.2 °F -10.3 °F -2.2 °F 78% 30.42 in 10.0 mi North 8.1 mph - N/A   Clear
6:35 AM 1.4 °F -11.3 °F -4.0 °F 78% 30.43 in 10.0 mi North 6.9 mph - N/A   Clear
6:55 AM 3.2 °F -7.8 °F -4.0 °F 72% 30.44 in 10.0 mi North 5.8 mph - N/A   Clear
7:15 AM 5.0 °F -2.1 °F -0.4 °F 78% 30.44 in 10.0 mi North 3.5 mph - N/A   Clear
7:35 AM 8.6 °F 2.0 °F 1.4 °F 73% 30.44 in 10.0 mi North 3.5 mph - N/A   Clear
7:55 AM 10.4 °F 0.8 °F 5.0 °F 79% 30.45 in 10.0 mi North 5.8 mph - N/A   Clear
8:15 AM 14.0 °F 6.5 °F 6.8 °F 73% 30.45 in 10.0 mi North 4.6 mph - N/A   Clear
8:55 AM 17.6 °F 12.3 °F 5.0 °F 58% 30.47 in 10.0 mi NNW 3.5 mph - N/A   Clear
9:15 AM 21.2 °F 14.9 °F 5.0 °F 50% 30.47 in 10.0 mi NNE 4.6 mph - N/A   Clear
9:35 AM 24.8 °F 15.3 °F 6.8 °F 46% 30.47 in 10.0 mi North 9.2 mph - N/A   Clear
9:55 AM 26.6 °F 18.2 °F 3.2 °F 37% 30.46 in 10.0 mi NNE 8.1 mph - N/A   Clear
10:15 AM 28.4 °F 19.7 °F 3.2 °F 34% 30.46 in 10.0 mi NNE 9.2 mph 16.1 mph N/A   Clear
10:35 AM - - - N/A% - - North - - N/A   Unknown
10:55 AM - - - N/A% - - North - - N/A   Unknown
11:15 AM - - - N/A% - - North - - N/A   Unknown
11:35 AM - - - N/A% - - North - - N/A   Unknown
11:55 AM - - - N/A% - - North - - N/A   Unknown
12:15 PM - - - N/A% - - North - - N/A   Unknown
12:35 PM - - - N/A% - - North - - N/A   Unknown
12:55 PM - - - N/A% - - North - - N/A   Unknown
1:15 PM - - - N/A% - - North - - N/A   Unknown
1:55 PM - - - N/A% - - North - - N/A   Unknown
2:15 PM - - - N/A% - - North - - N/A   Unknown
2:35 PM - - - N/A% - - North - - N/A   Unknown
2:55 PM - - - N/A% - - North - - N/A   Unknown
3:35 PM - - - N/A% - - North - - N/A   Unknown
3:55 PM - - - N/A% - - North - - N/A   Unknown
4:15 PM - - - N/A% - - North - - N/A   Unknown
4:35 PM - - - N/A% - - North - - N/A   Unknown
4:55 PM - - - N/A% - - North - - N/A   Unknown
5:15 PM - - - N/A% - - North - - N/A   Unknown
5:35 PM - - - N/A% - - North - - N/A   Unknown
5:55 PM - - - N/A% - - North - - N/A   Unknown
6:15 PM - - - N/A% - - North - - N/A   Unknown
6:35 PM - - - N/A% - - North - - N/A   Unknown
6:55 PM - - - N/A% - - North - - N/A   Unknown
7:15 PM - - - N/A% - - North - - N/A   Unknown
7:35 PM - - - N/A% - - North - - N/A   Unknown
7:55 PM - - - N/A% - - North - - N/A   Unknown
8:15 PM - - - N/A% - - North - - N/A   Unknown
8:35 PM - - - N/A% - - North - - N/A   Unknown
8:55 PM - - - N/A% - - North - - N/A   Unknown
9:15 PM 26.6 °F 22.6 °F 8.6 °F 47% 30.38 in 10.0 mi NNE 3.5 mph - N/A   Unknown
9:35 PM 24.8 °F - 6.8 °F 46% 30.39 in 10.0 mi Calm Calm - N/A   Clear
9:55 PM 19.4 °F - 6.8 °F 58% 30.39 in 10.0 mi Calm Calm - N/A   Clear
10:15 PM 19.4 °F - 8.6 °F 63% 30.38 in 10.0 mi Calm Calm - N/A   Clear
10:35 PM 21.2 °F - 8.6 °F 58% 30.38 in 10.0 mi Calm Calm - N/A   Clear
10:55 PM 21.2 °F - 10.4 °F 63% 30.38 in 10.0 mi Calm Calm - N/A   Clear
11:15 PM 21.2 °F - 8.6 °F 58% 30.37 in 10.0 mi Calm Calm - N/A   Clear
11:35 PM 19.4 °F 12.8 °F 8.6 °F 63% 30.37 in 10.0 mi North 4.6 mph - N/A   Clear
11:55 PM 17.6 °F 8.2 °F 6.8 °F 63% 30.36 in 10.0 mi NNE 6.9 mph - N/A   Clear